Location: Westminster
(33.3626°N, 96.4619°W)
Time: 12:29:18
(UTC+00:00)

Cosmos 1763 Rocket - Pass Details

Date: 05 July 2022
Orbit: 732 x 780 km, 74.0° (Epoch: 07 August)

Event Time Altitude Azimuth Distance (km) Brightness Sun altitude
Exits shadow 07:21:42 41° 348° (NNW) 1,097 4.6 -32.5°
Drops below altitude 10° 07:25:17 10° 9° (N) 2,316 6.8 -32.4°
Sets 07:27:43 0° 13° (NNE) 3,252 7.9 -32.2°
